Total_Precipitation_Accumulation
0.76 0.78 0.72 0.76 0.69 0.67 0.73 0.80 0.79 0.80 0.71 0.57 0.51 0.50 0.54 0.46 0.43 0.46 0.56 0.64 0.84 0.96 0.98 0.82 0.64 0.58 0.57 0.53 0.54 0.61 0.65 0.66 0.70 0.70 0.59 0.47 0.38 0.32 0.23 0.21 0.22 0.25 0.25
0.81 0.86 0.83 0.82 0.79 0.72 0.74 0.89 0.83 0.86 0.83 0.75 0.58 0.54 0.54 0.48 0.43 0.44 0.52 0.73 0.84 0.85 1.01 1.08 0.92 0.76 0.66 0.60 0.59 0.63 0.64 0.63 0.61 0.65 0.62 0.48 0.35 0.29 0.21 0.19 0.20 0.22 0.24
0.77 0.82 0.85 0.81 0.80 0.81 0.81 0.86 0.87 0.91 0.81 0.74 0.65 0.58 0.54 0.47 0.43 0.43 0.43 0.49 0.49 0.58 0.74 0.93 1.02 0.90 0.79 0.71 0.68 0.62 0.55 0.52 0.54 0.59 0.63 0.52 0.39 0.30 0.24 0.23 0.22 0.21 0.19
0.84 0.84 0.90 0.91 0.94 0.97 0.94 0.95 0.97 0.98 0.90 0.86 0.81 0.71 0.56 0.54 0.49 0.49 0.45 0.43 0.42 0.38 0.51 0.61 0.75 0.81 0.86 0.87 0.88 0.71 0.57 0.44 0.41 0.51 0.60 0.55 0.43 0.35 0.31 0.30 0.27 0.24 0.18
0.91 1.03 1.06 1.11 1.08 1.09 1.10 1.07 1.08 0.99 0.95 0.92 0.83 0.76 0.65 0.62 0.56 0.48 0.54 0.51 0.47 0.40 0.43 0.42 0.47 0.50 0.58 0.70 0.80 0.83 0.68 0.47 0.36 0.39 0.44 0.46 0.40 0.36 0.36 0.34 0.28 0.25 0.21
1.22 1.36 1.45 1.38 1.37 1.35 1.32 1.27 1.34 1.23 1.04 1.00 0.94 0.81 0.65 0.60 0.62 0.56 0.58 0.56 0.52 0.48 0.46 0.39 0.32 0.29 0.33 0.44 0.55 0.68 0.68 0.58 0.44 0.37 0.38 0.38 0.35 0.30 0.33 0.37 0.34 0.32 0.28
1.61 1.72 1.64 1.71 1.73 1.59 1.57 1.62 1.66 1.59 1.33 1.18 1.21 1.05 0.79 0.58 0.60 0.60 0.58 0.58 0.59 0.61 0.64 0.58 0.41 0.32 0.26 0.29 0.31 0.47 0.61 0.69 0.66 0.51 0.44 0.42 0.39 0.30 0.28 0.31 0.33 0.34 0.36
1.84 1.87 1.95 2.00 2.02 1.99 1.94 1.82 1.87 1.94 1.70 1.46 1.52 1.72 1.32 0.92 0.63 0.52 0.56 0.56 0.61 0.68 0.72 0.68 0.54 0.45 0.33 0.33 0.22 0.29 0.42 0.62 0.75 0.68 0.57 0.52 0.45 0.32 0.28 0.28 0.29 0.31 0.35
2.07 2.10 2.15 2.20 2.18 2.02 1.99 2.07 2.15 2.44 2.23 1.87 1.70 1.89 1.62 1.29 1.03 0.67 0.59 0.62 0.66 0.70 0.77 0.86 0.77 0.69 0.59 0.47 0.41 0.28 0.23 0.32 0.57 0.72 0.72 0.64 0.55 0.42 0.34 0.31 0.31 0.33 0.33
2.00 2.12 2.13 2.12 2.07 1.99 2.04 2.09 2.10 2.44 2.58 2.27 1.98 1.66 1.40 1.32 1.32 1.03 0.76 0.69 0.75 0.68 0.70 0.77 0.78 0.86 0.84 0.73 0.64 0.43 0.28 0.24 0.39 0.63 0.81 0.85 0.73 0.59 0.45 0.39 0.37 0.37 0.37
1.87 1.90 1.92 2.01 2.03 2.05 2.09 2.22 2.29 2.50 2.50 2.47 2.28 2.13 1.90 1.56 1.21 1.19 1.13 0.91 0.85 0.74 0.74 0.81 0.87 0.97 0.95 0.92 0.92 0.69 0.45 0.27 0.31 0.53 0.77 0.93 0.92 0.80 0.69 0.56 0.48 0.44 0.42
1.84 1.78 1.75 1.82 1.93 2.08 2.13 2.18 2.28 2.49 2.60 2.65 2.54 2.30 2.16 1.97 1.67 1.51 1.25 1.12 1.09 0.93 0.88 0.85 0.86 0.92 1.03 1.06 1.01 1.10 0.84 0.46 0.29 0.38 0.57 0.82 1.00 1.02 0.93 0.85 0.74 0.64 0.57
1.55 1.57 1.65 1.74 1.86 1.98 2.06 2.14 2.27 2.29 2.40 2.63 2.62 2.44 2.21 2.00 1.93 1.78 1.62 1.33 1.16 0.98 0.94 0.89 0.83 0.82 0.86 1.00 1.09 1.20 0.98 0.68 0.43 0.33 0.30 0.38 0.57 0.83 1.00 0.99 0.95 0.92 0.85
1.44 1.37 1.41 1.51 1.73 1.93 2.00 2.08 2.09 2.06 2.10 2.27 2.28 2.33 2.28 2.01 1.93 1.78 1.70 1.74 1.47 1.26 1.06 0.87 0.79 0.79 0.79 0.88 1.04 1.15 0.84 0.74 0.56 0.42 0.34 0.30 0.31 0.40 0.60 0.86 1.01 1.05 1.07
1.24 1.18 1.20 1.23 1.35 1.58 1.83 1.98 1.91 1.82 1.80 1.92 1.97 2.07 2.19 2.20 2.10 1.98 1.93 1.90 1.78 1.52 1.31 1.09 0.91 0.78 0.78 0.84 1.03 0.90 0.77 0.76 0.67 0.54 0.43 0.37 0.32 0.32 0.37 0.45 0.59 0.72 0.88
1.04 1.04 1.01 1.06 1.19 1.30 1.49 1.72 1.80 1.76 1.72 1.75 1.85 1.98 2.10 2.19 2.25 2.06 2.00 1.94 1.77 1.60 1.42 1.14 0.94 0.84 0.88 0.86 1.02 0.88 0.84 0.92 0.75 0.62 0.53 0.45 0.37 0.34 0.34 0.35 0.36 0.37 0.41
0.79 0.82 0.96 1.03 1.11 1.18 1.35 1.60 1.76 1.77 1.70 1.68 1.67 1.73 1.86 1.96 2.19 2.17 2.09 1.96 1.80 1.60 1.43 1.26 1.05 0.86 0.91 0.97 1.02 0.98 0.89 0.84 0.69 0.66 0.56 0.48 0.43 0.41 0.38 0.40 0.39 0.36 0.35
0.54 0.66 0.78 0.83 0.88 0.93 1.09 1.39 1.58 1.62 1.56 1.47 1.45 1.54 1.73 1.92 2.14 2.23 2.19 2.04 1.92 1.77 1.63 1.53 1.35 1.09 0.98 0.99 1.10 1.15 1.08 1.00 0.91 0.91 0.77 0.60 0.51 0.48 0.45 0.43 0.43 0.41 0.38
0.57 0.66 0.75 0.80 0.84 0.89 0.92 1.02 1.18 1.29 1.28 1.22 1.24 1.28 1.33 1.51 1.75 1.95 2.00 2.02 2.04 2.00 1.92 1.75 1.54 1.36 1.19 1.07 1.10 1.13 1.09 1.13 1.06 1.08 1.05 0.87 0.74 0.68 0.62 0.55 0.49 0.45 0.42
0.51 0.57 0.61 0.69 0.79 0.84 0.83 0.83 0.87 0.95 0.96 0.99 1.04 1.10 1.14 1.15 1.31 1.49 1.62 1.82 2.03 2.03 2.01 1.90 1.69 1.47 1.32 1.19 1.19 1.20 1.21 1.20 1.17 1.05 1.04 0.95 0.88 0.79 0.70 0.62 0.54 0.49 0.46
0.42 0.48 0.53 0.57 0.63 0.71 0.76 0.77 0.68 0.66 0.73 0.81 0.85 0.85 0.88 0.95 1.06 1.13 1.20 1.52 1.83 1.96 1.93 1.87 1.76 1.59 1.37 1.26 1.14 1.09 1.18 1.36 1.36 1.29 1.25 1.07 0.95 0.84 0.76 0.70 0.64 0.58 0.54
0.39 0.44 0.44 0.47 0.56 0.58 0.69 0.66 0.52 0.52 0.56 0.67 0.76 0.76 0.68 0.68 0.74 0.79 0.87 1.04 1.28 1.48 1.69 1.83 1.78 1.59 1.40 1.27 1.20 1.20 1.22 1.28 1.34 1.25 1.30 1.34 1.24 1.14 1.04 0.92 0.90 0.86 0.77
0.35 0.38 0.39 0.40 0.46 0.58 0.58 0.42 0.40 0.45 0.53 0.59 0.67 0.73 0.67 0.57 0.63 0.67 0.76 0.84 0.85 0.92 1.16 1.44 1.57 1.54 1.59 1.41 1.33 1.26 1.21 1.25 1.28 1.24 1.30 1.33 1.35 1.29 1.22 1.16 1.20 1.12 1.00
0.42 0.42 0.44 0.44 0.44 0.49 0.46 0.33 0.34 0.39 0.46 0.53 0.63 0.72 0.77 0.69 0.68 0.77 0.78 0.80 0.75 0.71 0.88 0.90 1.06 1.34 1.47 1.50 1.44 1.48 1.60 1.54 1.39 1.26 1.18 1.18 1.16 1.19 1.20 1.19 1.23 1.13 1.02
0.42 0.44 0.48 0.48 0.43 0.40 0.39 0.30 0.29 0.38 0.46 0.53 0.56 0.62 0.70 0.66 0.78 0.85 0.85 0.96 0.93 0.83 0.93 0.98 1.01 1.03 1.11 1.21 1.30 1.36 1.43 1.48 1.45 1.33 1.12 1.00 0.98 1.00 1.04 1.03 1.02 1.02 0.98
0.24 0.32 0.34 0.38 0.41 0.38 0.46 0.33 0.32 0.38 0.49 0.60 0.64 0.63 0.76 0.75 0.78 0.76 0.74 0.95 0.98 0.87 0.79 0.84 0.84 0.80 0.74 0.81 0.96 1.11 1.28 1.34 1.30 1.20 0.99 0.87 0.85 0.88 0.88 0.75 0.67 0.67 0.68